Milford Square, PA

3:20 AM EST on February 12, 2016 (GMT -0500)
Quakertown

Weather History for KUKT - May, 2013

Change the Weather History Date:

Thursday, May 16, 2013

  Actual Average (KABE) Record (KABE)
Temperature  
Mean Temperature 66 °F 60 °F  
Max Temperature 80 °F 72 °F 89 °F (1951)
Min Temperature 51 °F 48 °F 37 °F (1999)
Degree Days  
Heating Degree Days 0 6  
Month to date heating degree days 130  
Since 1 July heating degree days 5700  
Cooling Degree Days 0 1  
Month to date cooling degree days 10  
Year to date cooling degree days 15  
Growing Degree Days 16 (Base 50)    
Moisture  
Dew Point 56 °F    
Average Humidity 75    
Maximum Humidity 100    
Minimum Humidity 39    
Precipitation  
Precipitation 0.03 in 0.14 in 1.90 in (2014)
Month to date precipitation 2.03  
Year to date precipitation 14.71  
Snow  
Snow 0.00 in 0.00 in 0.00 in ()
Month to date snowfall 0.0  
Since 1 July snowfall 32.9  
Snow Depth -    
Sea Level Pressure  
Sea Level Pressure 29.80 in    
Wind  
Wind Speed 2 mph (SSW)    
Max Wind Speed 9 mph    
Max Gust Speed -    
Visibility 9 miles    
Events      
T = Trace of Precipitation, MM = Missing Value Source: NWS Daily Summary

Daily Weather History Graph

Daily Weather History Graph

Search for Another Location

Airport or City:

Trip Planner

Search our weather history database for the weather conditions in past years. The results will help you decide how hot, cold, wet, or windy it might be!

Date:

Astronomy

May. 16, 2013 Rise Set
Actual Time 5:44 AM EDT 8:12 PM EDT
Civil Twilight 5:13 AM EDT 8:43 PM EDT
Nautical Twilight 4:34 AM EDT 9:22 PM EDT
Astronomical Twilight 3:51 AM EDT 10:05 PM EDT
Moon 11:15 AM EDT (5/16) 12:31 AM EDT (5/16)
Length of Visible Light 15h 30m
Length of Day
14h 28m
Waxing Crescent, 35% of the Moon is Illuminated
May 16
Waxing Crescent
May 18
First Quarter
May 25
Full
May 31
Last Quarter
Jun 8
New

Hourly Weather History & Observations

Time (EDT) Temp. Heat Index Dew Point Humidity Pressure Visibility Wind Dir Wind Speed Gust Speed Precip Events Conditions
12:15 AM 60.8 °F - 55.4 °F 82% 29.75 in 10.0 mi Calm Calm - N/A   Clear
12:55 AM 57.2 °F - 55.4 °F 94% 29.76 in 10.0 mi Calm Calm - N/A   Partly Cloudy
1:15 AM 57.2 °F - 55.4 °F 94% 29.76 in 10.0 mi Calm Calm - N/A   Clear
1:35 AM 57.2 °F - 55.4 °F 94% 29.75 in 10.0 mi Calm Calm - N/A   Clear
1:55 AM 55.4 °F - 53.6 °F 94% 29.75 in 10.0 mi Calm Calm - N/A   Clear
2:15 AM 55.4 °F - 53.6 °F 94% 29.76 in 9.0 mi Calm Calm - N/A   Clear
2:35 AM 55.4 °F - 53.6 °F 94% 29.76 in 10.0 mi Calm Calm - N/A   Clear
2:55 AM 55.4 °F - 53.6 °F 94% 29.75 in 10.0 mi Calm Calm - N/A   Clear
3:15 AM 55.4 °F - 53.6 °F 94% 29.75 in 9.0 mi Calm Calm - N/A   Clear
3:35 AM 55.4 °F - 53.6 °F 94% 29.74 in 8.0 mi Calm Calm - N/A   Clear
3:55 AM 55.4 °F - 53.6 °F 94% 29.74 in 8.0 mi Calm Calm - N/A   Clear
4:15 AM 53.6 °F - 53.6 °F 100% 29.74 in 10.0 mi Calm Calm - N/A   Clear
4:35 AM 53.6 °F - 53.6 °F 100% 29.75 in 7.0 mi Calm Calm - N/A   Clear
4:55 AM 53.6 °F - 51.8 °F 94% 29.75 in 7.0 mi Calm Calm - N/A   Clear
5:15 AM 53.6 °F - 51.8 °F 94% 29.75 in 5.0 mi Calm Calm - N/A   Clear
5:35 AM 51.8 °F - 51.8 °F 100% 29.76 in 7.0 mi Calm Calm - N/A   Clear
5:55 AM 53.6 °F - 51.8 °F 94% 29.77 in 5.0 mi Calm Calm - N/A   Clear
6:15 AM 53.6 °F - 51.8 °F 94% 29.79 in 7.0 mi Calm Calm - N/A   Clear
6:35 AM 53.6 °F - 51.8 °F 94% 29.79 in 7.0 mi Calm Calm - N/A   Clear
6:55 AM 55.4 °F - 53.6 °F 94% 29.81 in 5.0 mi Calm Calm - N/A   Clear
7:15 AM 55.4 °F - 55.4 °F 100% 29.81 in 5.0 mi Calm Calm - N/A   Clear
7:35 AM 57.2 °F - 55.4 °F 94% 29.82 in 5.0 mi Calm Calm - N/A   Clear
7:55 AM 59.0 °F - 57.2 °F 94% 29.83 in 5.0 mi Calm Calm - N/A   Clear
8:15 AM 59.0 °F - 57.2 °F 94% 29.85 in 5.0 mi SW 3.5 mph - N/A   Scattered Clouds
8:35 AM 59.0 °F - 57.2 °F 94% 29.86 in 4.0 mi Calm Calm - 0.01 in   Overcast
8:55 AM 59.0 °F - 59.0 °F 100% 29.83 in 3.0 mi Calm Calm - 0.03 in   Overcast
9:15 AM 60.8 °F - 59.0 °F 94% 29.83 in 4.0 mi SW 3.5 mph - N/A   Mostly Cloudy
9:35 AM 60.8 °F - 59.0 °F 94% 29.83 in 5.0 mi Calm Calm - N/A   Partly Cloudy
9:55 AM 62.6 °F - 59.0 °F 88% 29.83 in 8.0 mi South 5.8 mph - N/A   Scattered Clouds
10:15 AM 64.4 °F - 59.0 °F 83% 29.82 in 8.0 mi Calm Calm - N/A   Partly Cloudy
10:35 AM 66.2 °F - 60.8 °F 83% 29.82 in 9.0 mi SSW 4.6 mph - N/A   Clear
10:55 AM 66.2 °F - 59.0 °F 78% 29.83 in 10.0 mi South 4.6 mph - N/A   Clear
11:15 AM 68.0 °F - 57.2 °F 68% 29.83 in 10.0 mi SSW 4.6 mph - N/A   Clear
11:35 AM 71.6 °F - 59.0 °F 64% 29.83 in 10.0 mi South 5.8 mph - N/A   Clear
11:55 AM 71.6 °F - 59.0 °F 64% 29.83 in 10.0 mi South 8.1 mph - N/A   Clear
12:15 PM 71.6 °F - 59.0 °F 64% 29.82 in 10.0 mi South 6.9 mph - N/A   Clear
12:35 PM 73.4 °F - 60.8 °F 65% 29.82 in 10.0 mi South 4.6 mph - N/A   Clear
12:55 PM 73.4 °F - 60.8 °F 65% 29.81 in 10.0 mi South 3.5 mph - N/A   Clear
1:15 PM 73.4 °F - 59.0 °F 61% 29.81 in 10.0 mi SSE 3.5 mph - N/A   Clear
1:35 PM 75.2 °F - 60.8 °F 61% 29.81 in 10.0 mi SSW 6.9 mph - N/A   Partly Cloudy
1:55 PM 75.2 °F - 62.6 °F 65% 29.81 in 9.0 mi South 5.8 mph - N/A   Partly Cloudy
2:15 PM 75.2 °F - 62.6 °F 65% 29.80 in 10.0 mi South 3.5 mph - N/A   Scattered Clouds
2:35 PM 77.0 °F - 60.8 °F 57% 29.79 in 10.0 mi South 5.8 mph - N/A   Partly Cloudy
3:15 PM 77.0 °F - 62.6 °F 61% 29.79 in 9.0 mi South 6.9 mph - N/A   Scattered Clouds
3:35 PM 77.0 °F - 62.6 °F 61% 29.78 in 10.0 mi SSW 8.1 mph - N/A   Partly Cloudy
3:55 PM 80.6 °F 81.8 °F 62.6 °F 54% 29.77 in 10.0 mi South 9.2 mph - N/A   Clear
4:15 PM 77.0 °F - 62.6 °F 61% 29.77 in 10.0 mi South 8.1 mph - N/A   Scattered Clouds
4:35 PM 80.6 °F 81.1 °F 59.0 °F 48% 29.77 in 10.0 mi SSW 8.1 mph - N/A   Partly Cloudy
4:55 PM 80.6 °F 80.5 °F 55.4 °F 42% 29.77 in 10.0 mi SW 6.9 mph - N/A   Partly Cloudy
5:15 PM 78.8 °F - 57.2 °F 47% 29.77 in 10.0 mi SW 5.8 mph - N/A   Scattered Clouds
5:35 PM 80.6 °F 80.5 °F 55.4 °F 42% 29.77 in 10.0 mi SW 6.9 mph - N/A   Partly Cloudy
6:15 PM 80.6 °F 80.5 °F 55.4 °F 42% 29.77 in 10.0 mi SW 8.1 mph - N/A   Clear
6:35 PM 78.8 °F - 53.6 °F 42% 29.78 in 9.0 mi SW 6.9 mph - N/A   Clear
6:55 PM 78.8 °F - 53.6 °F 42% 29.78 in 10.0 mi SW 5.8 mph - N/A   Clear
7:15 PM 78.8 °F - 51.8 °F 39% 29.79 in 10.0 mi SW 4.6 mph - N/A   Clear
7:35 PM 77.0 °F - 51.8 °F 41% 29.79 in 10.0 mi SW 4.6 mph - N/A   Clear
7:55 PM 75.2 °F - 50.0 °F 41% 29.80 in 10.0 mi Calm Calm - N/A   Clear
8:15 PM 73.4 °F - 51.8 °F 47% 29.80 in 10.0 mi Calm Calm - N/A   Clear
8:35 PM 68.0 °F - 55.4 °F 64% 29.81 in 10.0 mi Calm Calm - N/A   Clear
8:55 PM 64.4 °F - 53.6 °F 68% 29.82 in 10.0 mi Calm Calm - N/A   Clear
9:15 PM 62.6 °F - 53.6 °F 72% 29.83 in 10.0 mi Calm Calm - N/A   Clear
9:35 PM 62.6 °F - 53.6 °F 72% 29.84 in 10.0 mi Calm Calm - N/A   Clear
9:55 PM 59.0 °F - 53.6 °F 82% 29.85 in 10.0 mi Calm Calm - N/A   Clear
10:15 PM 59.0 °F - 51.8 °F 77% 29.86 in 10.0 mi Calm Calm - N/A   Clear
10:35 PM 59.0 °F - 51.8 °F 77% 29.86 in 10.0 mi Calm Calm - N/A   Clear
10:55 PM 59.0 °F - 50.0 °F 72% 29.87 in 10.0 mi NW 4.6 mph - N/A   Clear
11:15 PM 62.6 °F - 46.4 °F 55% 29.87 in 10.0 mi West 4.6 mph - N/A   Clear
11:35 PM 64.4 °F - 48.2 °F 56% 29.88 in 10.0 mi WNW 3.5 mph - N/A   Clear
11:55 PM 60.8 °F - 48.2 °F 63% 29.89 in 10.0 mi WNW 3.5 mph - N/A   Clear